Location: Byszew
(52.1813°N, 19.2693°E)
Time: 07:17:12
(UTC+00:00)

NOAA 18 - Pass Details

Date: 09 July 2022
Orbit: 839 x 860 km, 98.9° (Epoch: 15 August)

Event Time Altitude Azimuth Distance (km) Brightness Sun altitude
Exits shadow 21:01:09 - 195° (SSW) 2,703 7.4 -12.0°
Reaches altitude 10° 21:01:46 10° 198° (SSW) 2,486 7.2 -12.0°
Maximum altitude 21:06:50 36° 264° (W) 1,333 6.4 -12.3°
Drops below altitude 10° 21:11:57 10° 331° (NNW) 2,510 9.1 -12.6°
Sets 21:14:32 0° 339° (NNW) 3,452 10.5 -12.8°
